Home   Weather   Township of Washington   Past weeks
Flag for USA

Past Weather in Township of Washington, Kansas, USA — Yesterday and Last 2 Weeks

Now
98 °F

Sunny.


Feels Like: 110 °F
Forecast: 95 / 77 °F
Wind: 18 mph from South

Location: Forbes Field

Current Time: Jul 18, 2019 at 5:03:42 pm

Latest Report: Jul 18, 2019 at 3:53 pm


Visibility: 10 mi

Pressure: 29.71 "Hg

Humidity: 46%

Dew Point: 74 °F

Location of Township of WashingtonLocation

Past Weather in Township of Washington — Graph

°F

Township of Washington Temperature Yesterday

Maximum temperature yesterday: 99 °F (at 4:53 pm)
Minimum temperature yesterday: 77 °F (at 2:53 am)
Average temperature yesterday: 87 °F

High & Low Weather Summary for the Past Weeks

 TemperatureHumidityPressure
High99 °F (Jul 17, 4:53 pm)94% (Jul 5, 6:53 am)30.16 "Hg (Jul 5, 6:53 am)
Low64 °F (Jul 12, 5:53 am)42% (Jul 11, 3:53 pm)29.71 "Hg (Jul 18, 3:53 pm)
Average80 °F72%29.95 "Hg
* Reported Jul 3 3:53 pm — Jul 18 3:53 pm, Township of Washington. Weather by CustomWeather, © 2019

Note: Actual official high and low records may vary slightly from our data, if they occured in-between our weather recording intervals... More about our weather records

Advertising

Township of Washington Weather History for the Previous 24 Hours

Scroll right to see more
 ConditionsComfort  
Time TempWeatherWind HumidityBarometerVisibility
3:53 pm
Thu, Jul 18
98 °FSunny.18 mph46%29.71 "Hg10 mi
2:53 pm98 °FSunny.18 mph46%29.72 "Hg10 mi
1:53 pm96 °FSunny.14 mph49%29.75 "Hg10 mi
12:53 pm93 °FSunny.16 mph52%29.76 "Hg10 mi
11:53 am92 °FSunny.20 mph54%29.76 "Hg10 mi
10:53 am89 °FSunny.17 mph57%29.78 "Hg10 mi
9:53 am88 °FSunny.15 mph59%29.79 "Hg10 mi
8:53 am85 °FSunny.18 mph63%29.80 "Hg10 mi
7:53 am80 °FSunny.18 mph74%29.80 "Hg10 mi
6:53 am79 °FSunny.16 mph74%29.79 "Hg10 mi
5:53 am80 °FClear.10 mph71%29.79 "Hg10 mi
4:53 am81 °FClear.13 mph69%29.79 "Hg10 mi
3:53 am78 °FClear.14 mph76%29.81 "Hg10 mi
2:53 am82 °FClear.16 mph70%29.80 "Hg10 mi
1:53 am83 °FClear.15 mph70%29.80 "Hg10 mi
12:53 am84 °FClear.13 mph70%29.83 "Hg10 mi
11:53 pm
Wed, Jul 17
84 °FClear.12 mph70%29.83 "Hg10 mi
10:53 pm86 °FClear.12 mph63%29.80 "Hg10 mi
9:53 pm87 °FClear.10 mph61%29.80 "Hg10 mi
8:53 pm89 °FClear.14 mph59%29.77 "Hg10 mi
7:53 pm92 °FSunny.15 mph56%29.75 "Hg10 mi
6:53 pm94 °FSunny.16 mph54%29.75 "Hg10 mi
5:53 pm97 °FSunny.16 mph49%29.76 "Hg10 mi
Weather by CustomWeather, © 2019

See weather overview